CW1923 Weather Reports


Display with metric or nautical units.
time (UTC)temp
F
wind
direction
speed
MPH
gust
MPH
rain 1hr
in
rain 24hr
in
rain mn
in
humidity
%
barometer
mb
20260904030213 69 332 5.0 18.0 0.00 0.00 0.00 90 1015.2
20260904025208 69 186 4.0 16.0 0.00 0.00 0.00 90 1015.2
20260904024206 69 114 5.0 16.0 0.00 0.00 0.00 90 1015.4
20260904023703 70 153 5.0 16.0 0.00 0.00 0.00 90 1015.6
20260904023204 70 272 5.0 14.0 0.00 0.00 0.00 90 1015.6
20260904022702 70 246 4.0 14.0 0.00 0.00 0.00 89 1015.6
20260904022204 70 301 4.0 16.0 0.00 0.00 0.00 89 1015.8
20260904021704 70 274 4.0 16.0 0.00 0.00 0.00 89 1015.9
20260904021159 70 236 5.0 12.0 0.00 0.00 0.00 89 1015.9
20260904020152 70 323 5.0 18.0 0.00 0.00 0.00 89 1016.0
20260904015654 70 282 5.0 18.0 0.00 0.00 0.00 89 1016.1
20260904014648 70 232 5.0 18.0 0.00 0.00 0.00 89 1016.4
20260904014148 70 81 5.0 18.0 0.00 0.00 0.00 89 1016.4
20260904013644 70 264 5.0 25.0 0.00 0.00 0.00 89 1016.4
20260904013146 70 305 5.0 25.0 0.00 0.00 0.00 89 1016.4
20260904012644 70 275 5.0 14.0 0.00 0.00 0.00 89 1016.5
20260904012145 70 284 5.0 14.0 0.00 0.00 0.00 89 1016.5
20260904011644 70 95 5.0 18.0 0.00 0.00 0.00 89 1016.4
20260904011145 70 287 5.0 18.0 0.00 0.00 0.00 89 1016.5
20260904010644 70 101 4.0 12.0 0.00 0.00 0.00 89 1016.6
20260904005643 70 322 5.0 18.0 0.00 0.00 0.00 89 1016.6
20260904005141 70 316 5.0 22.0 0.00 0.00 0.00 89 1016.6
20260904004638 70 297 5.0 22.0 0.00 0.00 0.00 89 1016.7
20260904004138 70 316 5.0 20.0 0.00 0.00 0.00 89 1016.8
20260904003640 70 299 5.0 20.0 0.00 0.00 0.00 89 1016.8
20260904003136 70 276 5.0 18.0 0.00 0.00 0.00 89 1016.8
20260904002635 70 280 4.0 16.0 0.00 0.00 0.00 89 1016.8
20260904002137 71 87 4.0 14.0 0.00 0.00 0.00 88 1016.8
20260904001635 71 353 4.0 14.0 0.00 0.00 0.00 88 1016.7
20260904001137 71 257 5.0 16.0 0.00 0.00 0.00 88 1016.6
20260904000635 71 255 5.0 16.0 0.00 0.00 0.00 88 1016.7
20260904000135 71 323 5.0 16.0 0.00 0.00 0.00 88 1016.8
20260903235146 71 301 5.0 16.0 0.00 0.00 0.00 88 1017.0
20260903234635 71 193 5.0 14.0 0.00 0.00 0.00 88 1017.1
20260903234132 71 330 4.0 14.0 0.00 0.00 0.00 88 1016.9
20260903233131 71 276 5.0 14.0 0.00 0.00 0.00 88 1017.2
20260903232632 71 311 5.0 14.0 0.00 0.00 0.00 89 1017.2
20260903231133 71 305 7.0 18.0 0.00 0.00 0.00 89 1017.5
20260903230632 70 314 5.0 18.0 0.00 0.00 0.00 89 1017.5
20260903230132 70 293 5.0 18.0 0.00 0.00 0.00 90 1017.5
20260903225633 70 293 5.0 18.0 0.00 0.00 0.00 90 1017.7
20260903225132 70 276 5.0 14.0 0.00 0.00 0.00 90 1017.5
20260903224633 70 267 5.0 11.0 0.00 0.00 0.00 90 1017.6
20260903223628 70 94 4.0 11.0 0.00 0.00 0.00 90 1017.7
20260903223131 70 208 4.0 14.0 0.00 0.00 0.00 90 1017.8
20260903222630 70 309 4.0 14.0 0.00 0.00 0.00 90 1017.8
20260903222123 70 341 4.0 12.0 0.00 0.00 0.00 90 1017.7
20260903221622 70 293 4.0 12.0 0.00 0.00 0.00 90 1017.6
20260903221120 70 311 4.0 14.0 0.00 0.00 0.00 90 1017.7
20260903220110 71 230 4.0 16.0 0.00 0.00 0.00 89 1017.6
20260903215611 71 241 4.0 16.0 0.00 0.00 0.00 89 1017.7
20260903215105 71 149 4.0 12.0 0.00 0.00 0.00 89 1017.8
20260903214606 71 351 5.0 22.0 0.00 0.00 0.00 89 1017.9
20260903214105 71 101 5.0 22.0 0.00 0.00 0.00 89 1018.1
20260903213604 71 291 5.0 18.0 0.00 0.00 0.00 89 1018.1
20260903213105 71 291 5.0 16.0 0.00 0.00 0.00 89 1018.1
20260903212606 71 293 5.0 20.0 0.00 0.00 0.00 88 1018.1
20260903212102 71 311 7.0 23.0 0.00 0.00 0.00 89 1018.3
20260903211603 71 306 7.0 23.0 0.00 0.00 0.00 88 1018.2
20260903210604 71 314 5.0 18.0 0.00 0.00 0.00 88 1018.3
20260903205602 71 299 7.0 18.0 0.00 0.00 0.00 87 1018.5
20260903205109 71 315 7.0 18.0 0.00 0.00 0.00 87 1018.4
20260903204604 71 267 7.0 18.0 0.00 0.00 0.00 87 1018.4
20260903204104 71 301 7.0 20.0 0.00 0.00 0.00 87 1018.5
20260903203607 71 172 7.0 20.0 0.00 0.00 0.00 87 1018.5
20260903203109 71 294 7.0 22.0 0.00 0.00 0.00 86 1018.2
20260903202605 71 292 7.0 22.0 0.00 0.00 0.00 86 1018.3
20260903202104 71 313 5.0 18.0 0.00 0.00 0.00 86 1018.3
20260903201105 71 311 5.0 16.0 0.00 0.00 0.00 86 1018.3
20260903200603 71 296 4.0 18.0 0.00 0.00 0.00 86 1018.1
20260903200103 71 342 5.0 18.0 0.00 0.00 0.00 86 1018.3
20260903195103 71 114 5.0 18.0 0.00 0.00 0.00 86 1018.3
20260903194602 71 153 4.0 18.0 0.00 0.00 0.00 86 1018.4
20260903193107 72 295 4.0 12.0 0.00 0.00 0.00 86 1018.6
20260903192605 72 188 4.0 12.0 0.00 0.00 0.00 86 1018.3
20260903192103 72 139 2.0 12.0 0.00 0.00 0.00 86 1018.3
20260903191604 72 320 4.0 16.0 0.00 0.00 0.00 85 1018.5
20260903191106 72 327 5.0 18.0 0.00 0.00 0.00 85 1018.5
20260903190604 72 276 5.0 18.0 0.00 0.00 0.00 85 1018.5
20260903190106 72 293 5.0 16.0 0.00 0.00 0.00 85 1018.4
20260903185605 72 112 7.0 18.0 0.00 0.00 0.00 85 1018.3
20260903185104 72 289 7.0 18.0 0.00 0.00 0.00 85 1018.4
20260903184606 72 303 5.0 16.0 0.00 0.00 0.00 85 1018.3
20260903183605 72 314 4.0 11.0 0.00 0.00 0.00 85 1018.3
20260903183103 72 310 4.0 16.0 0.00 0.00 0.00 86 1018.3
20260903182606 72 301 5.0 16.0 0.00 0.00 0.00 86 1018.3
20260903182105 72 313 5.0 20.0 0.00 0.00 0.00 86 1018.4
20260903181607 72 296 4.0 20.0 0.00 0.00 0.00 86 1018.4
20260903181106 72 247 4.0 12.0 0.00 0.00 0.00 86 1018.4
20260903180104 72 313 4.0 16.0 0.00 0.00 0.00 86 1018.2
20260903175559 72 299 4.0 11.0 0.00 0.00 0.00 86 1018.2
20260903175054 72 324 5.0 12.0 0.00 0.00 0.00 85 1018.3
20260903174555 72 324 4.0 16.0 0.00 0.00 0.00 85 1018.3
20260903174055 72 328 4.0 16.0 0.00 0.00 0.00 85 1018.4
20260903172549 73 320 5.0 16.0 0.00 0.00 0.00 84 1018.3
20260903172049 73 333 4.0 12.0 0.00 0.00 0.00 84 1018.5
20260903171545 73 284 5.0 14.0 0.00 0.00 0.00 84 1018.5
20260903171045 73 292 4.0 14.0 0.00 0.00 0.00 84 1018.4
20260903170543 73 342 4.0 22.0 0.00 0.00 0.00 84 1018.5
20260903170044 73 323 5.0 22.0 0.00 0.00 0.00 83 1018.6
20260903165546 73 297 5.0 16.0 0.00 0.00 0.00 83 1018.5
20260903165043 73 301 7.0 16.0 0.00 0.00 0.00 83 1018.5
20260903164542 73 275 4.0 14.0 0.00 0.00 0.00 83 1018.5
20260903164041 73 293 4.0 12.0 0.00 0.00 0.00 83 1018.3
20260903163044 74 293 5.0 18.0 0.00 0.00 0.00 82 1018.4
20260903162540 74 301 4.0 12.0 0.00 0.00 0.00 82 1018.5
20260903161540 74 262 4.0 16.0 0.00 0.00 0.00 81 1018.2
20260903161042 74 125 4.0 16.0 0.00 0.00 0.00 81 1018.2
20260903160535 74 286 4.0 14.0 0.00 0.00 0.00 81 1018.2
20260903160035 74 237 5.0 16.0 0.00 0.00 0.00 81 1018.2
20260903155534 74 294 5.0 16.0 0.00 0.00 0.00 81 1018.3
20260903155032 74 159 5.0 14.0 0.00 0.00 0.00 83 1018.3
20260903154532 73 284 5.0 18.0 0.00 0.00 0.00 83 1018.3
20260903154032 73 299 5.0 18.0 0.00 0.00 0.00 83 1018.5
20260903153533 73 285 4.0 20.0 0.00 0.00 0.00 84 1018.5
20260903153030 73 234 4.0 20.0 0.00 0.00 0.00 84 1018.3
20260903152532 73 216 5.0 23.0 0.00 0.00 0.00 85 1018.5
20260903152030 72 297 7.0 23.0 0.00 0.00 0.00 85 1018.6
20260903151534 72 313 7.0 18.0 0.00 0.00 0.00 85 1018.6
20260903151030 72 291 7.0 20.0 0.00 0.00 0.00 85 1018.6
20260903150531 72 212 7.0 20.0 0.00 0.00 0.00 85 1018.6
20260903145030 72 276 7.0 23.0 0.00 0.00 0.00 85 1018.8
20260903144531 73 244 4.0 14.0 0.00 0.00 0.00 84 1018.7
20260903144031 73 293 4.0 14.0 0.00 0.00 0.00 83 1018.8
20260903143532 73 289 4.0 16.0 0.00 0.00 0.00 82 1018.7
20260903143034 73 295 5.0 22.0 0.00 0.00 0.00 81 1018.7
20260903142533 73 315 5.0 22.0 0.00 0.00 0.00 81 1018.7
20260903142035 73 276 5.0 16.0 0.00 0.00 0.00 80 1018.7
20260903141534 74 30 5.0 20.0 0.00 0.00 0.00 81 1018.7
20260903141033 73 308 7.0 20.0 0.00 0.00 0.00 81 1018.6
20260903140533 73 172 7.0 20.0 0.00 0.00 0.00 81 1018.7
20260903140034 73 140 7.0 20.0 0.00 0.00 0.00 80 1018.6
20260903135530 74 245 7.0 16.0 0.00 0.00 0.00 80 1018.7
20260903135033 74 300 9.0 20.0 0.00 0.00 0.00 80 1018.8
20260903134529 74 284 7.0 20.0 0.00 0.00 0.00 80 1018.7
20260903134032 74 278 7.0 25.0 0.00 0.00 0.00 80 1018.6
20260903133031 73 336 7.0 20.0 0.00 0.00 0.00 80 1018.7
20260903132029 73 243 7.0 22.0 0.00 0.00 0.00 80 1018.6
20260903131028 74 299 9.0 22.0 0.00 0.00 0.00 80 1018.6
20260903130528 74 295 9.0 20.0 0.00 0.00 0.00 79 1018.7
20260903130027 74 282 7.0 20.0 0.00 0.00 0.00 80 1018.7
20260903125523 74 307 7.0 16.0 0.00 0.00 0.00 81 1018.7
20260903125025 74 283 7.0 18.0 0.00 0.00 0.00 80 1018.7
20260903124023 74 328 7.0 20.0 0.00 0.00 0.00 80 1018.5
20260903123523 74 282 9.0 20.0 0.00 0.00 0.00 80 1018.6
20260903123021 73 287 7.0 22.0 0.00 0.00 0.00 79 1018.8
20260903122521 74 280 9.0 25.0 0.00 0.00 0.00 79 1018.6
20260903122022 73 297 9.0 25.0 0.00 0.00 0.00 80 1018.6
20260903121524 73 328 7.0 22.0 0.00 0.00 0.00 80 1018.7
20260903121023 73 213 7.0 23.0 0.00 0.00 0.00 81 1018.7
20260903120523 73 293 9.0 23.0 0.00 0.00 0.00 81 1018.6
20260903120020 73 305 9.0 18.0 0.00 0.00 0.00 81 1018.7
20260903115522 73 319 7.0 20.0 0.00 0.00 0.00 82 1018.8
20260903115021 72 316 9.0 20.0 0.00 0.00 0.00 83 1018.6
20260903114524 71 301 7.0 20.0 0.00 0.00 0.00 84 1018.7
20260903114022 71 281 5.0 20.0 0.00 0.00 0.00 84 1018.7
20260903113523 71 302 5.0 20.0 0.00 0.00 0.00 83 1018.8
20260903112521 71 321 7.0 23.0 0.00 0.00 0.00 83 1018.8
20260903112022 71 298 7.0 18.0 0.00 0.00 0.00 83 1018.7
20260903111524 71 305 5.0 18.0 0.00 0.00 0.00 83 1018.6
20260903111021 71 356 5.0 12.0 0.00 0.00 0.00 83 1018.8
20260903110523 71 302 5.0 16.0 0.00 0.00 0.00 83 1018.7
20260903110020 71 307 7.0 16.0 0.00 0.00 0.00 83 1018.7
20260903105024 71 41 9.0 23.0 0.00 0.00 0.00 82 1018.6
20260903104021 73 150 7.0 16.0 0.00 0.00 0.00 81 1018.5
20260903103517 72 338 7.0 18.0 0.00 0.00 0.00 83 1018.6
20260903102519 71 160 7.0 23.0 0.00 0.00 0.00 84 1018.6
20260903102013 69 320 9.0 23.0 0.00 0.00 0.00 86 1018.7
20260903101515 69 271 7.0 20.0 0.00 0.00 0.00 86 1018.8
20260903101014 69 280 7.0 20.0 0.00 0.00 0.00 87 1018.8
20260903100510 68 323 9.0 20.0 0.00 0.00 0.00 86 1018.8
20260903100013 68 283 9.0 18.0 0.00 0.00 0.00 87 1019.0
20260903095508 68 213 7.0 16.0 0.00 0.00 0.00 87 1018.8
20260903095008 68 308 9.0 16.0 0.00 0.00 0.00 87 1018.7
20260903094509 68 305 7.0 16.0 0.00 0.00 0.00 86 1018.6
20260903094009 68 293 5.0 18.0 0.00 0.00 0.00 86 1018.5
20260903093507 68 268 7.0 18.0 0.00 0.00 0.00 86 1018.5
20260903093009 68 285 9.0 16.0 0.00 0.00 0.00 86 1018.3
20260903092505 68 315 7.0 20.0 0.00 0.00 0.00 86 1018.3
20260903092006 68 291 7.0 20.0 0.00 0.00 0.00 86 1018.4
20260903091504 68 304 5.0 18.0 0.00 0.00 0.00 86 1018.3
20260903091005 68 349 5.0 20.0 0.00 0.00 0.00 86 1018.2
20260903090504 68 280 5.0 20.0 0.00 0.00 0.00 86 1018.3
20260903090002 68 327 5.0 18.0 0.00 0.00 0.00 86 1018.2
20260903085504 68 307 5.0 18.0 0.00 0.00 0.00 86 1018.2
20260903084504 68 262 5.0 18.0 0.00 0.00 0.00 86 1018.2
20260903084003 68 296 7.0 18.0 0.00 0.00 0.00 86 1018.0
20260903083505 68 318 5.0 16.0 0.00 0.00 0.00 85 1018.1
20260903083003 68 308 5.0 14.0 0.00 0.00 0.00 85 1018.1
20260903082503 68 203 5.0 14.0 0.00 0.00 0.00 85 1018.2
20260903082004 68 298 7.0 16.0 0.00 0.00 0.00 85 1018.3
20260903081501 68 328 7.0 18.0 0.00 0.00 0.00 85 1018.3
20260903081003 68 166 5.0 18.0 0.00 0.00 0.00 85 1018.3
20260903080501 68 301 5.0 18.0 0.00 0.00 0.00 85 1018.2
20260903080004 68 280 7.0 16.0 0.00 0.00 0.00 85 1018.2
20260903075457 68 299 9.0 18.0 0.00 0.00 0.00 85 1018.1
20260903074948 68 201 9.0 22.0 0.00 0.00 0.00 85 1018.1
20260903074449 68 332 7.0 25.0 0.00 0.00 0.00 85 1018.1
20260903072946 68 183 7.0 29.0 0.00 0.00 0.00 84 1018.1
20260903072449 68 325 7.0 22.0 0.00 0.00 0.00 84 1018.1
20260903071948 68 293 9.0 25.0 0.00 0.00 0.00 84 1018.1
20260903071446 68 285 9.0 25.0 0.00 0.00 0.00 84 1018.0
20260903070947 68 315 9.0 22.0 0.00 0.00 0.00 84 1017.9
20260903070444 68 291 7.0 22.0 0.00 0.00 0.00 84 1017.9
20260903065944 68 8 7.0 20.0 0.00 0.00 0.00 84 1017.9
20260903065440 68 324 7.0 20.0 0.00 0.00 0.00 84 1017.7
20260903064940 68 311 7.0 25.0 0.00 0.00 0.00 84 1017.8
20260903064441 68 299 7.0 25.0 0.00 0.00 0.00 84 1017.9
20260903063440 67 297 7.0 27.0 0.00 0.00 0.00 84 1017.6
20260903062441 67 270 5.0 18.0 0.00 0.00 0.00 84 1017.6
20260903061940 67 268 5.0 18.0 0.00 0.00 0.00 84 1017.7
20260903061440 67 300 4.0 11.0 0.00 0.00 0.00 83 1017.5
20260903060941 67 304 5.0 18.0 0.00 0.00 0.00 83 1017.7
20260903060434 67 313 7.0 20.0 0.00 0.00 0.00 83 1017.8
20260903055936 67 15 5.0 20.0 0.00 0.00 0.00 83 1017.8
20260903055432 67 278 4.0 11.0 0.00 0.00 0.00 83 1017.7
20260903054430 67 317 5.0 14.0 0.00 0.00 0.00 83 1017.6
20260903053930 67 301 5.0 12.0 0.00 0.00 0.00 82 1017.6
20260903052429 67 285 5.0 16.0 0.00 0.00 0.00 82 1017.8
20260903051927 67 284 5.0 20.0 0.00 0.00 0.00 82 1017.8
20260903051427 67 307 5.0 20.0 0.00 0.00 0.00 81 1017.6
20260903050926 67 43 5.0 12.0 0.00 0.00 0.00 81 1017.7
20260903050426 67 147 5.0 12.0 0.00 0.00 0.00 81 1017.7
20260903045926 67 4 4.0 12.0 0.00 0.00 0.00 80 1017.7
20260903045423 67 334 4.0 18.0 0.00 0.00 0.00 80 1017.6
20260903044921 67 304 4.0 18.0 0.00 0.00 0.00 79 1017.4
20260903044420 67 319 4.0 14.0 0.00 0.00 0.00 79 1017.6
20260903043921 67 175 4.0 14.0 0.00 0.00 0.00 78 1017.4
20260903043420 67 306 4.0 14.0 0.00 0.00 0.00 77 1017.5
20260903042922 67 280 4.0 14.0 0.00 0.00 0.00 77 1017.6
20260903042422 67 303 4.0 14.0 0.00 0.00 0.00 75 1017.6
20260903041920 67 339 4.0 12.0 0.00 0.00 0.00 75 1017.7
20260903041420 67 301 4.0 20.0 0.00 0.00 0.00 74 1017.7
20260903040421 67 176 5.0 14.0 0.00 0.00 0.00 74 1017.9
20260903035919 67 206 4.0 16.0 0.00 0.00 0.00 74 1017.9
20260903035416 68 263 4.0 16.0 0.00 0.00 0.00 75 1017.9
20260903034416 68 83 5.0 16.0 0.00 0.00 0.00 75 1018.0
20260903033409 68 308 5.0 18.0 0.00 0.00 0.00 75 1017.8
20260903032406 68 345 5.0 14.0 0.00 0.00 0.00 74 1017.8
20260903031906 68 160 4.0 12.0 0.00 0.00 0.00 73 1017.9
20260903031407 68 325 5.0 16.0 0.00 0.00 0.00 73 1018.1
20260903030907 68 289 5.0 16.0 0.00 0.00 0.00 73 1017.9
20260903030405 67 309 4.0 14.0 0.00 0.00 0.00 73 1018.1